Volver al catálogo

ARIANE 5 R/B

ActivoHEO
NORAD 43274·ROCKET BODY·🇫🇷 France

Lanzado Apr 5, 2018 desde Guiana Space Centre

Loading…

Próximos Pases (próximas 24 horas)

TLE

ActualizadoSource: Space-Track

Época: Sep 14, 2026, 12:58 UTC

1 43274U 18033D   26257.54030715  .00001665  00000-0  46866-3 0  9993
2 43274   2.8490  28.1942 7015015  74.8125 347.9414  2.61912475 74984

Sigue ARIANE 5 R/B en tiempo real con AllMySat

Download on the App Store